,,,PA_Meas_PMT16A,,PR_Meas_QMR101_102,,RH_Meas_QMH101,,SR_Meas_QMS101,,TA_Meas_QMH101,,GenWind,,GenWind,
date,time,status,PA,status,PR,status,RH,status,SR,status,TA,status,DirAvg,status,SpdAvg,
2008-06-30, 00:00:04,VALID,1006.07,VALID,0,VALID,88.7925,VALID,0,VALID,24.93,VALID,2,VALID,0.652344,
2008-06-30, 00:01:04,VALID,1006.04,VALID,0,VALID,88.7239,VALID,0,VALID,24.9514,VALID,335,VALID,0.377734,
2008-06-30, 00:02:04,VALID,1006.04,VALID,0,VALID,88.7315,VALID,0,VALID,24.9106,VALID,349,VALID,0.392969,
2008-06-30, 00:03:04,VALID,1006.03,VALID,0,VALID,88.7773,VALID,0,VALID,24.893,VALID,347,VALID,0.547656,
2008-06-30, 00:04:04,VALID,1005.99,VALID,0,VALID,88.8154,VALID,0,VALID,24.8735,VALID,352,VALID,0.776953,
2008-06-30, 00:05:04,VALID,1006,VALID,0,VALID,88.9299,VALID,0,VALID,24.854,VALID,24,VALID,0.557422,
2008-06-30, 00:06:04,VALID,1005.96,VALID,0,VALID,88.9756,VALID,0,VALID,24.8735,VALID,355,VALID,0.532812,
2008-06-30, 00:07:04,VALID,1005.95,VALID,0,VALID,88.8078,VALID,0,VALID,24.8735,VALID,358,VALID,1.27813,
2008-06-30, 00:08:04,VALID,1005.94,VALID,0,VALID,88.6247,VALID,0,VALID,24.9319,VALID,349,VALID,0.601563,
2008-06-30, 00:09:04,VALID,1005.96,VALID,0,VALID,88.3729,VALID,0,VALID,24.9709,VALID,348,VALID,0.65625,
2008-06-30, 00:10:04,VALID,1005.95,VALID,0,VALID,88.2967,VALID,0,VALID,24.9904,VALID,351,VALID,0.416406,
2008-06-30, 00:11:04,VALID,1005.94,VALID,0,VALID,88.3119,VALID,0,VALID,24.9904,VALID,349,VALID,0.520312,
2008-06-30, 00:12:04,VALID,1005.9,VALID,0,VALID,88.3882,VALID,0,VALID,24.9904,VALID,349,VALID,0.415625,
2008-06-30, 00:13:04,VALID,1005.89,VALID,0,VALID,88.4187,VALID,0,VALID,24.9514,VALID,11,VALID,0.214062,
2008-06-30, 00:14:04,VALID,1005.87,VALID,0,VALID,88.4798,VALID,0,VALID,24.8911,VALID,11,VALID,0.290234,
2008-06-30, 00:15:04,VALID,1005.88,VALID,0,VALID,88.5942,VALID,0,VALID,24.8949,VALID,11,VALID,0.201953,
2008-06-30, 00:16:04,VALID,1005.84,VALID,0,VALID,88.7773,VALID,0,VALID,24.8346,VALID,11,VALID,0.0117188,
2008-06-30, 00:17:04,VALID,1005.85,VALID,0,VALID,88.8841,VALID,0,VALID,24.8151,VALID,360,VALID,0.240234,
2008-06-30, 00:18:04,VALID,1005.8,VALID,0,VALID,88.9604,VALID,0,VALID,24.7761,VALID,360,VALID,0.186328,
2008-06-30, 00:19:04,VALID,1005.81,VALID,0,VALID,89.1435,VALID,0,VALID,24.7372,VALID,360,VALID,0.282031,
2008-06-30, 00:20:04,VALID,1005.76,VALID,0,VALID,89.2732,VALID,0,VALID,24.7372,VALID,358,VALID,0.331641,
2008-06-30, 00:21:04,VALID,1005.7,VALID,0,VALID,89.4486,VALID,0,VALID,24.7177,VALID,355,VALID,0.452734,
2008-06-30, 00:22:04,VALID,1005.77,VALID,0,VALID,89.4105,VALID,0,VALID,24.6788,VALID,346,VALID,0.453906,
2008-06-30, 00:23:04,VALID,1005.67,VALID,0,VALID,89.4639,VALID,0,VALID,24.6574,VALID,358,VALID,0.569141,
2008-06-30, 06:36:04,VALID,1005.82,VALID,0,VALID,88.6857,VALID,49.6781,VALID,24.6964,VALID,345,VALID,0.308984,
2008-06-30, 06:37:04,VALID,1005.88,VALID,0,VALID,88.5408,VALID,50.8848,VALID,24.6769,VALID,338,VALID,0.480469,
2008-06-30, 06:38:04,VALID,1005.89,VALID,0,VALID,88.3119,VALID,51.8905,VALID,24.7177,VALID,348,VALID,0.385156,
2008-06-30, 06:39:04,VALID,1005.92,VALID,0,VALID,88.3653,VALID,52.695,VALID,24.7567,VALID,354,VALID,0.415625,
2008-06-30, 06:40:04,VALID,1005.95,VALID,0,VALID,88.3501,VALID,53.4995,VALID,24.7567,VALID,360,VALID,0.505469,
2008-06-30, 06:41:04,VALID,1005.97,VALID,0,VALID,88.289,VALID,54.1029,VALID,24.7761,VALID,350,VALID,0.532031,
2008-06-30, 06:42:04,VALID,1006.03,VALID,0,VALID,88.4264,VALID,54.6057,VALID,24.7956,VALID,351,VALID,0.0503906,
2008-06-30, 06:43:04,VALID,1006.06,VALID,0,VALID,88.2814,VALID,55.1085,VALID,24.7956,VALID,352,VALID,0.263672,
2008-06-30, 06:44:04,VALID,1006.08,VALID,0,VALID,88.1975,VALID,55.5107,VALID,24.7956,VALID,351,VALID,0.0558594,
2008-06-30, 06:45:04,VALID,1006.07,VALID,0,VALID,88.3653,VALID,56.0136,VALID,24.8151,VALID,229,VALID,0.122266,
2008-06-30, 06:46:04,VALID,1006.09,VALID,0,VALID,88.3348,VALID,56.4158,VALID,24.7937,VALID,231,VALID,0.00546875,
2008-06-30, 06:47:04,VALID,1006.12,VALID,0,VALID,88.1593,VALID,56.8181,VALID,24.8151,VALID,301,VALID,0.433594,
2008-06-30, 06:48:04,VALID,1006.09,VALID,0,VALID,88.2051,VALID,57.3209,VALID,24.8346,VALID,310,VALID,0.183203,
2008-06-30, 06:49:04,VALID,1006.12,VALID,0,VALID,88.0754,VALID,57.9243,VALID,24.8559,VALID,12,VALID,0.317187,
2008-06-30, 06:50:04,VALID,1006.13,VALID,0,VALID,88.0449,VALID,58.7288,VALID,24.8327,VALID,9,VALID,0.197656,
2008-06-30, 06:51:04,VALID,1006.08,VALID,0,VALID,88.1822,VALID,59.7344,VALID,24.8735,VALID,332,VALID,0.316016,
2008-06-30, 06:52:04,VALID,1006.09,VALID,0,VALID,88.2127,VALID,61.0417,VALID,24.854,VALID,2,VALID,0.415625,
2008-06-30, 06:53:04,VALID,1006.08,VALID,0,VALID,87.9152,VALID,62.9524,VALID,24.8735,VALID,327,VALID,0.619922,
2008-06-30, 06:54:04,VALID,1006.07,VALID,0,VALID,87.8847,VALID,64.8631,VALID,24.8735,VALID,335,VALID,0.338672,
2008-06-30, 06:55:04,VALID,1006.06,VALID,0,VALID,87.7092,VALID,66.271,VALID,24.893,VALID,340,VALID,0.271875,
2008-06-30, 06:56:04,VALID,1006.07,VALID,0,VALID,87.549,VALID,66.8744,VALID,24.893,VALID,336,VALID,0.527734,
2008-06-30, 06:57:04,VALID,1006.06,VALID,0,VALID,87.5948,VALID,67.5783,VALID,24.9125,VALID,330,VALID,0.217187,
2008-06-30, 06:58:04,VALID,1006.06,VALID,0,VALID,87.4575,VALID,68.4834,VALID,24.9125,VALID,288,VALID,0.438672,
2008-06-30, 06:59:04,VALID,1006.11,VALID,0,VALID,87.3659,VALID,68.8856,VALID,24.9319,VALID,286,VALID,0.594531,
2008-06-30, 07:00:04,VALID,1006.08,VALID,0,VALID,87.1294,VALID,68.7851,VALID,24.9514,VALID,18,VALID,0.833203,
2008-06-30, 07:01:04,VALID,1006.13,VALID,0,VALID,87.3354,VALID,68.7851,VALID,24.9922,VALID,20,VALID,0.222656,
2008-06-30, 07:02:04,VALID,1006.16,VALID,0,VALID,87.0532,VALID,69.1873,VALID,24.9922,VALID,16,VALID,0.522266,
2008-06-30, 07:03:04,VALID,1006.15,VALID,0,VALID,86.6717,VALID,69.8913,VALID,24.9922,VALID,359,VALID,0.723828,
2008-06-30, 07:04:04,VALID,1006.19,VALID,0,VALID,86.3589,VALID,71.098,VALID,25.0079,VALID,346,VALID,0.964063,
2008-06-30, 07:05:04,VALID,1006.23,VALID,0,VALID,86.7022,VALID,72.5059,VALID,25.0098,VALID,349,VALID,0.547266,
2008-06-30, 07:06:04,VALID,1006.23,VALID,0,VALID,86.6641,VALID,74.4166,VALID,25.0293,VALID,349,VALID,0.539844,
2008-06-30, 07:07:04,VALID,1006.21,VALID,0,VALID,86.5802,VALID,76.7295,VALID,25.0701,VALID,351,VALID,0.644531,
2008-06-30, 07:08:04,VALID,1006.26,VALID,0,VALID,86.7327,VALID,79.6459,VALID,25.0682,VALID,346,VALID,0.560156,
2008-06-30, 07:09:04,VALID,1006.24,VALID,0,VALID,86.7022,VALID,83.3667,VALID,25.0682,VALID,356,VALID,0.815234,
2008-06-30, 07:10:04,VALID,1006.24,VALID,0,VALID,86.6565,VALID,87.5903,VALID,25.0682,VALID,355,VALID,0.869922,
2008-06-30, 07:11:04,VALID,1006.24,VALID,0,VALID,86.5344,VALID,92.2162,VALID,25.0682,VALID,346,VALID,0.926562,
2008-06-30, 07:12:04,VALID,1006.28,VALID,0,VALID,86.8167,VALID,96.8421,VALID,25.1072,VALID,357,VALID,0.485156,
2008-06-30, 07:13:04,VALID,1006.29,VALID,0,VALID,86.8777,VALID,101.267,VALID,25.1286,VALID,330,VALID,0.471094,
2008-06-30, 07:14:04,VALID,1006.3,VALID,0,VALID,86.748,VALID,105.289,VALID,25.1053,VALID,304,VALID,0.279297,
2008-06-30, 07:15:04,VALID,1006.32,VALID,0,VALID,86.3208,VALID,108.91,VALID,25.1656,VALID,353,VALID,0.740234,
2008-06-30, 07:16:04,VALID,1006.36,VALID,0,VALID,86.7099,VALID,112.228,VALID,25.2046,VALID,334,VALID,0.171484,
2008-06-30, 07:17:04,VALID,1006.39,VALID,0,VALID,86.1606,VALID,115.245,VALID,25.2435,VALID,33,VALID,0.446875,
2008-06-30, 07:18:04,VALID,1006.39,VALID,0,VALID,85.8096,VALID,117.86,VALID,25.2825,VALID,356,VALID,0.263672,
2008-06-30, 07:19:04,VALID,1006.45,VALID,0,VALID,85.4816,VALID,120.173,VALID,25.3195,VALID,354,VALID,0.747266,
2008-06-30, 07:20:04,VALID,1006.43,VALID,0,VALID,85.5198,VALID,122.083,VALID,25.3798,VALID,341,VALID,0.612891,
2008-06-30, 07:21:04,VALID,1006.44,VALID,0,VALID,85.5732,VALID,123.692,VALID,25.3798,VALID,354,VALID,0.548437,
2008-06-30, 07:22:04,VALID,1006.45,VALID,0,VALID,85.6266,VALID,124.899,VALID,25.4402,VALID,355,VALID,0.448047,
2008-06-30, 07:23:04,VALID,1006.49,VALID,0,VALID,85.9241,VALID,125.905,VALID,25.4597,VALID,356,VALID,0.818359,
2008-06-30, 07:24:04,VALID,1006.5,VALID,0,VALID,85.8554,VALID,126.609,VALID,25.4792,VALID,340,VALID,0.388672,
2008-06-30, 07:25:04,VALID,1006.53,VALID,0,VALID,85.0239,VALID,127.011,VALID,25.4577,VALID,356,VALID,0.885156,
2008-06-30, 07:26:04,VALID,1006.5,VALID,0,VALID,85.2299,VALID,127.313,VALID,25.4792,VALID,344,VALID,0.522266,
2008-06-30, 07:27:04,VALID,1006.5,VALID,0,VALID,84.589,VALID,127.011,VALID,25.4967,VALID,337,VALID,1.20898,
2008-06-30, 07:28:04,VALID,1006.5,VALID,0,VALID,85.0849,VALID,126.106,VALID,25.4948,VALID,345,VALID,0.483594,
2008-06-30, 07:29:04,VALID,1006.49,VALID,0,VALID,85.1536,VALID,124.597,VALID,25.5142,VALID,358,VALID,0.532422,
2008-06-30, 07:30:04,VALID,1006.46,VALID,0,VALID,84.8942,VALID,122.184,VALID,25.5532,VALID,348,VALID,0.644531,
2008-06-30, 07:31:04,VALID,1006.42,VALID,0,VALID,84.5585,VALID,118.463,VALID,25.5941,VALID,342,VALID,0.819531,
2008-06-30, 07:32:04,VALID,1006.39,VALID,0,VALID,85.001,VALID,114.24,VALID,25.5921,VALID,342,VALID,0.423828,
2008-06-30, 07:33:04,VALID,1006.38,VALID,0,VALID,84.5585,VALID,109.211,VALID,25.6311,VALID,342,VALID,0.444141,
2008-06-30, 07:34:04,VALID,1006.33,VALID,0,VALID,84.6501,VALID,103.68,VALID,25.672,VALID,343,VALID,0.364453,
2008-06-30, 07:35:04,VALID,1006.32,VALID,0,VALID,84.5204,VALID,97.7472,VALID,25.7129,VALID,35,VALID,0.594922,
2008-06-30, 07:36:04,VALID,1006.28,VALID,0,VALID,84.3525,VALID,91.9145,VALID,25.7109,VALID,36,VALID,0.742188,
2008-06-30, 07:37:04,VALID,1006.26,VALID,0,VALID,85.0849,VALID,86.7858,VALID,25.7304,VALID,22,VALID,0.347656,
2008-06-30, 07:38:04,VALID,1006.25,VALID,0,VALID,84.589,VALID,83.2661,VALID,25.7713,VALID,349,VALID,0.582422,
2008-06-30, 07:39:04,VALID,1006.2,VALID,0,VALID,85.4435,VALID,81.5565,VALID,25.7908,VALID,349,VALID,0.284766,
2008-06-30, 07:40:04,VALID,1006.2,VALID,0,VALID,85.6113,VALID,81.3554,VALID,25.8103,VALID,349,VALID,0.410547,
2008-06-30, 07:41:04,VALID,1006.18,VALID,0,VALID,85.3748,VALID,82.1599,VALID,25.7908,VALID,349,VALID,0.402344,
2008-06-30, 07:42:04,VALID,1006.18,VALID,0,VALID,85.207,VALID,84.7746,VALID,25.7908,VALID,354,VALID,0.411719,
2008-06-30, 07:43:04,VALID,1006.16,VALID,0,VALID,85.6189,VALID,88.1937,VALID,25.7908,VALID,354,VALID,0.278125,
2008-06-30, 07:44:04,VALID,1006.15,VALID,0,VALID,85.9012,VALID,94.4286,VALID,25.8103,VALID,354,VALID,0.040625,
2008-06-30, 07:45:04,VALID,1006.15,VALID,0,VALID,85.947,VALID,105.893,VALID,25.8298,VALID,354,VALID,0.369141,
2008-06-30, 07:46:04,VALID,1006.15,VALID,0,VALID,86.0309,VALID,116.251,VALID,25.8493,VALID,354,VALID,0.309375,
2008-06-30, 07:47:04,VALID,1006.16,VALID,0,VALID,84.734,VALID,134.151,VALID,25.8687,VALID,354,VALID,0.357031,
2008-06-30, 07:48:04,VALID,1006.14,VALID,0,VALID,85.0162,VALID,166.733,VALID,25.9272,VALID,354,VALID,0.193359,
2008-06-30, 07:49:04,VALID,1006.14,VALID,0,VALID,85.5045,VALID,200.523,VALID,26.0051,VALID,354,VALID,0.221094,
2008-06-30, 07:50:04,VALID,1006.15,VALID,0,VALID,85.2222,VALID,229.485,VALID,26.12,VALID,354,VALID,0.194141,
2008-06-30, 07:51:04,VALID,1006.17,VALID,0,VALID,85.3824,VALID,248.491,VALID,26.2349,VALID,354,VALID,0.200391,
2008-06-30, 07:52:04,VALID,1006.16,VALID,0,VALID,84.9476,VALID,262.972,VALID,26.4317,VALID,354,VALID,0.342969,
2008-06-30, 07:53:04,VALID,1006.19,VALID,0,VALID,84.2076,VALID,273.028,VALID,26.5681,VALID,359,VALID,0.215625,
2008-06-30, 07:54:04,VALID,1006.2,VALID,0,VALID,82.9488,VALID,287.107,VALID,26.685,VALID,16,VALID,0.567187,
2008-06-30, 07:55:04,VALID,1006.19,VALID,0,VALID,82.9488,VALID,309.231,VALID,26.8214,VALID,17,VALID,0.3125,
2008-06-30, 07:56:04,VALID,1006.22,VALID,0,VALID,82.0791,VALID,327.634,VALID,26.9988,VALID,19,VALID,0.491016,
2008-06-30, 07:57:04,VALID,1006.18,VALID,0,VALID,80.8814,VALID,338.093,VALID,27.1331,VALID,19,VALID,0.5875,
2008-06-30, 07:58:04,VALID,1006.2,VALID,0,VALID,81.5832,VALID,350.663,VALID,27.369,VALID,19,VALID,0.559766,
2008-06-30, 07:59:04,VALID,1006.22,VALID,0,VALID,80.3855,VALID,362.429,VALID,27.5424,VALID,18,VALID,0.513672,
2008-06-30, 08:00:04,VALID,1006.21,VALID,0,VALID,78.4478,VALID,370.072,VALID,27.7394,VALID,1,VALID,0.489453,
2008-06-30, 08:01:04,VALID,1006.2,VALID,0,VALID,76.8381,VALID,374.798,VALID,27.8563,VALID,14,VALID,0.814844,
2008-06-30, 08:02:04,VALID,1006.22,VALID,0,VALID,77.0288,VALID,380.832,VALID,27.9927,VALID,10,VALID,0.178125,
2008-06-30, 08:03:04,VALID,1006.26,VALID,0,VALID,77.2424,VALID,386.162,VALID,28.1682,VALID,10,VALID,0.00273437,
2008-06-30, 08:04:04,VALID,1006.25,VALID,0,VALID,73.3517,VALID,387.167,VALID,28.3631,VALID,347,VALID,0.409375,
2008-06-30, 08:05:04,VALID,1006.24,VALID,0,VALID,74.4426,VALID,393.603,VALID,28.5169,VALID,260,VALID,0.278125,
2008-06-30, 08:06:04,VALID,1006.28,VALID,0,VALID,73.3441,VALID,396.52,VALID,28.7119,VALID,23,VALID,0.509766,
2008-06-30, 08:07:04,VALID,1006.28,VALID,0,VALID,73.901,VALID,401.045,VALID,28.8093,VALID,344,VALID,0.316016,
2008-06-30, 08:08:04,VALID,1006.32,VALID,0,VALID,72.7643,VALID,391.693,VALID,28.8873,VALID,10,VALID,0.127344,
2008-06-30, 08:09:04,VALID,1006.3,VALID,0,VALID,72.5049,VALID,402.855,VALID,29.0628,VALID,341,VALID,0.472656,
2008-06-30, 08:10:04,VALID,1006.32,VALID,0,VALID,72.3676,VALID,411.302,VALID,29.1603,VALID,4,VALID,0.833203,
2008-06-30, 08:11:04,VALID,1006.35,VALID,0,VALID,72.7719,VALID,418.543,VALID,29.2795,VALID,356,VALID,0.775,
2008-06-30, 08:12:04,VALID,1006.36,VALID,0,VALID,70.796,VALID,419.046,VALID,29.3163,VALID,307,VALID,0.316406,
2008-06-30, 08:13:04,VALID,1006.35,VALID,0,VALID,71.0478,VALID,423.471,VALID,29.2773,VALID,348,VALID,0.364062,
2008-06-30, 08:14:04,VALID,1006.39,VALID,0,VALID,71.9403,VALID,424.577,VALID,29.338,VALID,356,VALID,0.379297,
2008-06-30, 08:15:04,VALID,1006.36,VALID,0,VALID,69.4838,VALID,426.387,VALID,29.338,VALID,31,VALID,1.22812,
2008-06-30, 08:16:04,VALID,1006.37,VALID,0,VALID,70.5748,VALID,424.778,VALID,29.2795,VALID,15,VALID,0.800391,
2008-06-30, 08:17:04,VALID,1006.37,VALID,0,VALID,70.1704,VALID,403.559,VALID,29.2795,VALID,353,VALID,0.708984,
2008-06-30, 08:18:04,VALID,1006.37,VALID,0,VALID,71.4521,VALID,418.342,VALID,29.2968,VALID,310,VALID,0.180469,
2008-06-30, 08:19:04,VALID,1006.41,VALID,0,VALID,73.1533,VALID,383.447,VALID,29.3748,VALID,9,VALID,0.3,
2008-06-30, 08:20:04,VALID,1006.38,VALID,0,VALID,71.5742,VALID,392.899,VALID,29.4723,VALID,360,VALID,0.365234,
2008-06-30, 08:21:04,VALID,1006.39,VALID,0,VALID,71.5513,VALID,397.626,VALID,29.6305,VALID,348,VALID,0.142188,
2008-06-30, 08:22:04,VALID,1006.4,VALID,0,VALID,69.5144,VALID,437.851,VALID,29.7453,VALID,344,VALID,0.465234,
2008-06-30, 08:23:04,VALID,1006.45,VALID,0,VALID,70.7273,VALID,453.841,VALID,29.8255,VALID,352,VALID,0.61875,
2008-06-30, 08:24:04,VALID,1006.41,VALID,0,VALID,65.4329,VALID,464.098,VALID,29.7865,VALID,356,VALID,0.308594,
2008-06-30, 08:25:04,VALID,1006.44,VALID,0,VALID,64.7616,VALID,462.791,VALID,29.7648,VALID,287,VALID,0.839844,
2008-06-30, 08:26:04,VALID,1006.42,VALID,0,VALID,65.9288,VALID,464.299,VALID,29.806,VALID,308,VALID,0.417578,
2008-06-30, 08:27:04,VALID,1006.4,VALID,0,VALID,63.8308,VALID,461.383,VALID,29.806,VALID,278,VALID,0.698438,
2008-06-30, 08:28:04,VALID,1006.41,VALID,0,VALID,65.1125,VALID,459.472,VALID,29.767,VALID,306,VALID,0.311328,
2008-06-30, 08:29:04,VALID,1006.38,VALID,0,VALID,65.2269,VALID,471.339,VALID,29.7475,VALID,352,VALID,0.562891,
2008-06-30, 08:30:04,VALID,1006.38,VALID,0,VALID,64.1665,VALID,466.31,VALID,29.7648,VALID,354,VALID,0.660156,
2008-06-30, 08:31:04,VALID,1006.39,VALID,0,VALID,66.1653,VALID,462.187,VALID,29.8233,VALID,23,VALID,0.548437,
2008-06-30, 08:32:04,VALID,1006.39,VALID,0,VALID,65.2956,VALID,480.087,VALID,29.9403,VALID,355,VALID,0.281641,
2008-06-30, 08:33:04,VALID,1006.42,VALID,0,VALID,61.5956,VALID,483.205,VALID,30.1376,VALID,293,VALID,0.863672,
2008-06-30, 08:34:04,VALID,1006.45,VALID,0,VALID,62.6102,VALID,504.524,VALID,30.1571,VALID,281,VALID,0.450391,
2008-06-30, 08:35:04,VALID,1006.48,VALID,0,VALID,63.1519,VALID,496.379,VALID,30.1938,VALID,280,VALID,0.376953,
2008-06-30, 08:36:04,VALID,1006.52,VALID,0,VALID,66.089,VALID,469.528,VALID,30.2351,VALID,281,VALID,0.923047,
2008-06-30, 08:37:04,VALID,1006.55,VALID,0,VALID,68.7057,VALID,497.183,VALID,30.0596,VALID,182,VALID,0.160938,
2008-06-30, 08:38:04,VALID,1006.57,VALID,0,VALID,69.728,VALID,486.322,VALID,30.0401,VALID,314,VALID,0.353516,
2008-06-30, 08:39:04,VALID,1006.58,VALID,0,VALID,69.3923,VALID,481.294,VALID,29.9816,VALID,308,VALID,1.28555,
2008-06-30, 08:40:04,VALID,1006.64,VALID,0,VALID,70.1399,VALID,497.887,VALID,29.9036,VALID,265,VALID,0.813672,
2008-06-30, 08:41:04,VALID,1006.63,VALID,0,VALID,68.4387,VALID,499.798,VALID,29.9208,VALID,283,VALID,1.03828,
2008-06-30, 08:42:04,VALID,1006.65,VALID,0,VALID,69.7661,VALID,503.318,VALID,29.9621,VALID,286,VALID,0.853125,
2008-06-30, 08:43:04,VALID,1006.65,VALID,0,VALID,68.2403,VALID,524.436,VALID,30.0011,VALID,353,VALID,1.05859,
2008-06-30, 08:44:04,VALID,1006.63,VALID,0,VALID,70.117,VALID,528.458,VALID,29.9816,VALID,285,VALID,1.04805,
2008-06-30, 08:45:04,VALID,1006.64,VALID,0,VALID,66.0051,VALID,377.815,VALID,29.9598,VALID,2,VALID,1.35898,
2008-06-30, 08:46:04,VALID,1006.62,VALID,0,VALID,69.11,VALID,262.268,VALID,29.8428,VALID,345,VALID,0.806641,
2008-06-30, 08:47:04,VALID,1006.62,VALID,0,VALID,70.8799,VALID,358.004,VALID,29.8255,VALID,355,VALID,0.821094,
2008-06-30, 08:48:04,VALID,1006.63,VALID,0,VALID,66.829,VALID,487.529,VALID,29.4918,VALID,33,VALID,1.725,
2008-06-30, 08:49:04,VALID,1006.61,VALID,0,VALID,69.4076,VALID,546.358,VALID,29.3163,VALID,352,VALID,0.808594,
2008-06-30, 08:50:04,VALID,1006.62,VALID,0,VALID,68.9346,VALID,544.85,VALID,29.3553,VALID,10,VALID,0.632422,
2008-06-30, 08:51:04,VALID,1006.64,VALID,0,VALID,69.9721,VALID,547.666,VALID,29.3965,VALID,30,VALID,0.815234,
2008-06-30, 08:52:04,VALID,1006.68,VALID,0,VALID,67.2715,VALID,555.711,VALID,29.377,VALID,21,VALID,1.00859,
2008-06-30, 08:53:04,VALID,1006.64,VALID,0,VALID,67.5156,VALID,555.811,VALID,29.4138,VALID,13,VALID,0.233984,
2008-06-30, 08:54:04,VALID,1006.67,VALID,0,VALID,69.1787,VALID,559.029,VALID,29.611,VALID,26,VALID,0.251953,
2008-06-30, 08:55:04,VALID,1006.68,VALID,0,VALID,71.1851,VALID,562.75,VALID,29.8233,VALID,300,VALID,0.397656,
2008-06-30, 08:56:04,VALID,1006.69,VALID,0,VALID,69.5372,VALID,564.46,VALID,30.0596,VALID,355,VALID,0.823047,
2008-06-30, 08:57:04,VALID,1006.69,VALID,0,VALID,64.0292,VALID,560.035,VALID,30.1571,VALID,5,VALID,1.06562,
2008-06-30, 08:58:04,VALID,1006.69,VALID,0,VALID,66.356,VALID,564.963,VALID,30.1766,VALID,265,VALID,0.65625,
2008-06-30, 08:59:04,VALID,1006.69,VALID,0,VALID,65.3719,VALID,566.672,VALID,30.1961,VALID,279,VALID,0.411328,
2008-06-30, 09:00:04,VALID,1006.67,VALID,0,VALID,64.1436,VALID,561.443,VALID,30.1571,VALID,226,VALID,0.518359,
2008-06-30, 09:01:04,VALID,1006.68,VALID,0,VALID,65.3795,VALID,552.794,VALID,30.1961,VALID,339,VALID,0.477344,
2008-06-30, 09:02:04,VALID,1006.66,VALID,0,VALID,65.0896,VALID,557.521,VALID,30.1571,VALID,51,VALID,0.647656,
2008-06-30, 09:03:04,VALID,1006.66,VALID,0,VALID,64.548,VALID,552.794,VALID,30.0791,VALID,45,VALID,0.250391,
2008-06-30, 09:04:04,VALID,1006.68,VALID,0,VALID,65.3185,VALID,568.181,VALID,30.1961,VALID,273,VALID,0.969141,
2008-06-30, 09:05:04,VALID,1006.68,VALID,0,VALID,63.7469,VALID,574.918,VALID,30.3132,VALID,357,VALID,1.07813,
2008-06-30, 09:06:04,VALID,1006.67,VALID,0,VALID,62.9612,VALID,589.5,VALID,30.3132,VALID,42,VALID,1.34844,
2008-06-30, 09:07:04,VALID,1006.66,VALID,0,VALID,63.7012,VALID,592.115,VALID,30.1766,VALID,348,VALID,0.789453,
2008-06-30, 09:08:04,VALID,1006.69,VALID,0,VALID,63.6478,VALID,594.226,VALID,30.2546,VALID,5,VALID,1.16367,
2008-06-30, 09:09:04,VALID,1006.68,VALID,0,VALID,66.6078,VALID,597.847,VALID,30.335,VALID,357,VALID,0.907422,
2008-06-30, 09:10:04,VALID,1006.66,VALID,0,VALID,65.4024,VALID,608.104,VALID,30.3132,VALID,1,VALID,0.905469,
2008-06-30, 09:11:04,VALID,1006.67,VALID,0,VALID,63.8766,VALID,612.931,VALID,30.4107,VALID,16,VALID,0.8375,
2008-06-30, 09:12:04,VALID,1006.68,VALID,0,VALID,63.4113,VALID,618.764,VALID,30.5277,VALID,284,VALID,1.11211,
2008-06-30, 09:13:04,VALID,1006.72,VALID,0,VALID,67.157,VALID,619.267,VALID,30.6838,VALID,321,VALID,0.372266,
2008-06-30, 09:14:04,VALID,1006.71,VALID,0,VALID,61.7024,VALID,620.674,VALID,30.8789,VALID,295,VALID,1.7957,
2008-06-30, 09:15:04,VALID,1006.73,VALID,0,VALID,60.8479,VALID,628.72,VALID,30.8422,VALID,246,VALID,0.542578,
2008-06-30, 09:16:04,VALID,1006.75,VALID,0,VALID,62.8009,VALID,633.446,VALID,30.8203,VALID,300,VALID,0.538281,
2008-06-30, 09:17:04,VALID,1006.79,VALID,0,VALID,62.0915,VALID,634.753,VALID,30.8399,VALID,258,VALID,0.305859,
2008-06-30, 09:18:04,VALID,1006.8,VALID,0,VALID,63.5409,VALID,633.044,VALID,30.7813,VALID,249,VALID,0.433984,
2008-06-30, 09:19:04,VALID,1006.83,VALID,0,VALID,61.9618,VALID,638.172,VALID,30.7618,VALID,8,VALID,0.535156,
2008-06-30, 09:20:04,VALID,1006.85,VALID,0,VALID,63.2282,VALID,640.083,VALID,30.8008,VALID,316,VALID,0.802344,
2008-06-30, 09:21:04,VALID,1006.87,VALID,0,VALID,62.8467,VALID,646.821,VALID,30.662,VALID,20,VALID,0.852734,
2008-06-30, 09:22:04,VALID,1006.85,VALID,0,VALID,65.7915,VALID,652.352,VALID,30.662,VALID,17,VALID,0.973437,
2008-06-30, 09:23:04,VALID,1006.86,VALID,0,VALID,62.6331,VALID,654.966,VALID,30.8594,VALID,23,VALID,0.712891,
2008-06-30, 09:24:04,VALID,1006.85,VALID,0,VALID,62.1372,VALID,662.81,VALID,30.9155,VALID,48,VALID,0.219922,
2008-06-30, 09:25:04,VALID,1006.85,VALID,0,VALID,61.0539,VALID,558.527,VALID,31.035,VALID,283,VALID,1.28516,
2008-06-30, 09:26:04,VALID,1006.83,VALID,0,VALID,61.8778,VALID,533.185,VALID,30.9546,VALID,275,VALID,1.92734,
2008-06-30, 09:27:04,VALID,1006.83,VALID,0,VALID,63.2968,VALID,608.808,VALID,30.7595,VALID,290,VALID,1.00625,
2008-06-30, 09:28:04,VALID,1006.86,VALID,0,VALID,64.2123,VALID,460.176,VALID,30.74,VALID,296,VALID,0.614844,
2008-06-30, 09:29:04,VALID,1006.84,VALID,0,VALID,61.71,VALID,495.474,VALID,30.74,VALID,308,VALID,1.56172,
2008-06-30, 09:30:04,VALID,1006.84,VALID,0,VALID,62.3051,VALID,259.955,VALID,30.6034,VALID,318,VALID,1.68281,
2008-06-30, 09:31:04,VALID,1006.85,VALID,0,VALID,62.2669,VALID,738.233,VALID,30.4474,VALID,286,VALID,1.32891,
2008-06-30, 09:32:04,VALID,1006.85,VALID,0,VALID,61.6261,VALID,759.451,VALID,30.3889,VALID,207,VALID,0.2375,
2008-06-30, 09:33:04,VALID,1006.85,VALID,0,VALID,62.1449,VALID,783.486,VALID,30.4084,VALID,161,VALID,0.725391,
2008-06-30, 09:34:04,VALID,1006.84,VALID,0,VALID,64.6929,VALID,331.455,VALID,30.2523,VALID,166,VALID,0.682031,
2008-06-30, 09:35:04,VALID,1006.84,VALID,0,VALID,64.1589,VALID,241.954,VALID,30.2156,VALID,201,VALID,0.539063,
2008-06-30, 09:36:04,VALID,1006.84,VALID,0,VALID,67.0197,VALID,392.698,VALID,30.2936,VALID,17,VALID,0.419922,
2008-06-30, 09:37:04,VALID,1006.82,VALID,0,VALID,63.5181,VALID,272.827,VALID,30.4669,VALID,266,VALID,0.821094,
2008-06-30, 09:38:04,VALID,1006.84,VALID,0,VALID,62.1983,VALID,873.892,VALID,30.5254,VALID,222,VALID,0.726953,
2008-06-30, 09:39:04,VALID,1006.84,VALID,0,VALID,65.3643,VALID,882.239,VALID,30.6424,VALID,17,VALID,0.622656,
2008-06-30, 09:40:04,VALID,1006.83,VALID,0,VALID,64.0902,VALID,610.819,VALID,30.8984,VALID,315,VALID,0.50625,
2008-06-30, 09:41:04,VALID,1006.87,VALID,0,VALID,61.3591,VALID,307.723,VALID,31.035,VALID,186,VALID,0.533984,
2008-06-30, 09:42:04,VALID,1006.81,VALID,0,VALID,63.0451,VALID,856.092,VALID,30.9764,VALID,277,VALID,0.595312,
2008-06-30, 09:43:04,VALID,1006.8,VALID,0,VALID,64.7921,VALID,850.26,VALID,31.0131,VALID,341,VALID,0.628125,
2008-06-30, 09:44:04,VALID,1006.8,VALID,0,VALID,63.7088,VALID,846.74,VALID,31.2496,VALID,259,VALID,0.706641,
2008-06-30, 09:45:04,VALID,1006.75,VALID,0,VALID,60.7335,VALID,829.946,VALID,31.3838,VALID,256,VALID,1.35234,
2008-06-30, 09:46:04,VALID,1006.71,VALID,0,VALID,62.7628,VALID,841.008,VALID,31.4228,VALID,271,VALID,0.795313,